Simultaneous Nadir Overpasses (SNOs) Predictions

Prediction of SNOs between NOAA-20 and METOP-B Satellite Orbit:

Table of predicted SNOs for the next 14.0 days since TLE Epoch: 9/5/2025
Index Date (NOAA-20) Time (NOAA-20) Lat,Lon (NOAA-20) SZA (NOAA-20 ) Date (METOP-B) Time (METOP-B) Lat,Lon (METOP-B) SZA (METOP-B ) Distance(km) Time Diff (sec)
1 09/10/2025 09:37:33 75.10, 21.63 70.66 09/10/2025 09:38:38 75.09, 25.01 70.45 96.71 65
2 09/10/2025 10:28:16 -75.03,-170.85 109.41 09/10/2025 10:29:23 -74.95,-168.05 109.66 81.10 67
3 09/10/2025 11:18:57 74.82, -2.94 70.37 09/10/2025 11:20:07 74.73, -1.30 70.18 48.75 70
4 09/10/2025 12:09:39 -74.70, 164.70 109.76 09/10/2025 12:10:51 -74.64, 165.78 109.89 32.52 72
5 09/10/2025 13:00:21 74.53, -27.54 70.07 09/10/2025 13:01:34 74.47, -27.33 69.98 9.32 73
6 09/10/2025 13:51:04 -74.47, 139.95 110.00 09/10/2025 13:52:16 -74.48, 140.02 110.00 2.72 72
7 09/10/2025 14:41:49 74.44, -52.68 70.00 09/10/2025 14:42:56 74.46, -52.71 70.00 1.85 67
8 09/10/2025 15:32:34 -74.47, 114.56 109.96 09/10/2025 15:33:38 -74.47, 114.64 109.99 2.49 64
9 09/10/2025 16:23:19 74.45, -78.07 70.03 09/10/2025 16:24:18 74.44, -78.09 70.01 0.83 59
10 09/10/2025 17:14:03 -74.43, 89.29 109.98 09/10/2025 17:15:00 -74.45, 89.26 109.97 2.62 57
11 09/10/2025 18:04:49 74.46,-103.47 70.07 09/10/2025 18:05:40 74.43,-103.46 70.03 3.18 51
12 09/10/2025 18:55:33 -74.44, 63.90 109.95 09/10/2025 18:56:22 -74.44, 63.88 109.96 0.55 49
13 09/10/2025 19:46:18 74.42,-128.73 70.05 09/10/2025 19:47:02 74.41,-128.84 70.04 3.36 44
14 09/10/2025 20:37:03 -74.44, 38.51 109.91 09/10/2025 20:37:44 -74.42, 38.50 109.94 2.35 41
15 09/10/2025 21:27:48 74.42,-154.12 70.08 09/10/2025 21:28:23 74.45,-154.10 70.09 2.95 35
16 09/10/2025 22:18:32 -74.40, 13.24 109.93 09/10/2025 22:19:06 -74.41, 13.13 109.93 3.58 34
17 09/10/2025 23:09:18 74.43,-179.52 70.11 09/10/2025 23:09:45 74.43,-179.48 70.11 1.29 27
18 09/11/2025 00:00:02 -74.41, -12.15 109.90 09/11/2025 00:00:28 -74.39, -12.25 109.92 3.56 26
19 09/11/2025 00:50:48 74.44, 155.09 70.15 09/11/2025 00:51:07 74.42, 155.15 70.12 2.61 19
20 09/11/2025 01:41:32 -74.42, -37.54 109.87 09/11/2025 01:41:49 -74.43, -37.51 109.86 1.67 17
21 09/11/2025 02:32:17 74.40, 129.83 70.13 09/11/2025 02:32:29 74.40, 129.77 70.14 2.00 12
22 09/11/2025 03:23:02 -74.42, -62.93 109.83 09/11/2025 03:23:11 -74.41, -62.88 109.85 1.85 9
23 09/11/2025 04:13:47 74.40, 104.43 70.16 09/11/2025 04:13:51 74.39, 104.39 70.15 2.01 4
24 09/11/2025 05:04:31 -74.38, -88.20 109.85 09/11/2025 05:04:33 -74.40, -88.26 109.83 2.67 2
25 09/11/2025 05:55:17 74.41, 79.04 70.20 09/11/2025 05:55:12 74.42, 79.13 70.21 3.21 5
26 09/11/2025 06:46:01 -74.39,-113.59 109.82 09/11/2025 06:45:55 -74.38,-113.64 109.82 1.57 6
27 09/11/2025 07:36:47 74.42, 53.65 70.23 09/11/2025 07:36:34 74.41, 53.76 70.22 3.36 13
28 09/11/2025 08:27:31 -74.40,-138.98 109.78 09/11/2025 08:27:17 -74.37,-139.02 109.80 3.12 14
29 09/11/2025 09:18:16 74.38, 28.38 70.21 09/11/2025 09:17:56 74.39, 28.38 70.23 2.08 20
30 09/11/2025 10:09:01 -74.40,-164.38 109.75 09/11/2025 10:08:38 -74.40,-164.27 109.75 3.09 23
31 09/11/2025 10:59:46 74.38, 2.99 70.25 09/11/2025 10:59:18 74.38, 3.00 70.25 0.46 28
32 09/11/2025 11:50:30 -74.36, 170.36 109.77 09/11/2025 11:50:00 -74.39, 170.35 109.74 3.10 30
33 09/11/2025 12:41:16 74.39, -22.40 70.28 09/11/2025 12:40:40 74.36, -22.38 70.26 2.90 36
34 09/11/2025 13:32:00 -74.37, 144.97 109.74 09/11/2025 13:31:22 -74.38, 144.97 109.72 0.69 38
35 09/11/2025 14:22:45 74.35, -47.67 70.26 09/11/2025 14:22:02 74.35, -47.76 70.28 2.72 43
36 09/11/2025 15:13:30 -74.38, 119.57 109.70 09/11/2025 15:12:44 -74.36, 119.59 109.71 1.82 46
37 09/11/2025 16:04:15 74.36, -73.06 70.29 09/11/2025 16:03:24 74.33, -73.14 70.29 3.25 51
38 09/11/2025 16:54:59 -74.33, 94.31 109.72 09/11/2025 16:54:06 -74.35, 94.21 109.69 3.07 53
39 09/11/2025 17:45:45 74.36, -98.45 70.33 09/11/2025 17:44:45 74.37, -98.39 70.35 2.00 60
40 09/11/2025 18:36:29 -74.34, 68.91 109.69 09/11/2025 18:35:28 -74.33, 68.84 109.68 2.65 61
41 09/11/2025 19:27:15 74.37,-123.85 70.36 09/11/2025 19:26:07 74.35,-123.77 70.36 2.87 68
42 09/11/2025 20:17:59 -74.35, 43.52 109.65 09/11/2025 20:16:49 -74.37, 43.58 109.62 2.57 70
43 09/11/2025 21:08:44 74.33,-149.11 70.34 09/11/2025 21:07:29 74.34,-149.15 70.37 1.65 75
44 09/11/2025 21:59:27 -74.26, 18.38 109.73 09/11/2025 21:58:13 -74.25, 17.96 109.69 12.84 74
45 09/11/2025 22:50:08 74.04,-173.76 70.05 09/11/2025 22:48:57 74.03,-175.26 70.14 45.95 71
46 09/11/2025 23:40:51 -73.97, -6.28 110.02 09/11/2025 23:39:41 -73.94, -8.14 109.93 57.54 70
47 09/12/2025 00:31:31 73.70, 161.68 69.70 09/12/2025 00:30:25 73.71, 158.65 69.90 94.58 66



Historial Predications of SNOs between NOAA-20 and METOP-B
